Location: Be Tobo
(6.6442°N, 10.6239°W)
Time: 01:20:07
(UTC+00:00)

NOSS 3-4 (A) - Pass Details

Date: 18 September 2020
Orbit: 886 x 1326 km, 63.4° (Epoch: 19 October)

Event Time Altitude Azimuth Distance (km) Brightness Sun altitude
Rises 20:28:16 0° 211° (SSW) 3,583 6.8 -27.6°
Reaches altitude 10° 20:30:53 10° 215° (SW) 2,600 6.1 -28.2°
Maximum altitude 20:36:44 58° 294° (WNW) 1,025 3.8 -29.7°
Enters shadow 20:39:18 32° 358° (N) 1,462 4.4 -30.3°
